FW8685 Weather Reports


Display with metric or nautical units.
time (UTC)temp
F
wind
direction
speed
MPH
gust
MPH
rain 1hr
in
rain 24hr
in
rain mn
in
humidity
%
barometer
mb
20260905062528 80 117 6.0 10.0 0.00 0.00 0.00 69 1010.4
20260905062024 80 109 6.0 9.0 0.00 0.00 0.00 69 1010.3
20260905061546 80 114 6.0 9.0 0.00 0.00 0.00 69 1010.3
20260905061024 80 112 6.0 9.0 0.00 0.00 0.00 69 1010.4
20260905060524 80 105 6.0 9.0 0.00 0.00 0.00 69 1010.3
20260905060045 80 103 6.0 9.0 0.00 0.00 0.00 69 1010.2
20260905055523 80 94 6.0 9.0 0.00 0.00 0.00 69 1010.2
20260905055023 80 92 6.0 8.0 0.00 0.00 0.00 69 1010.2
20260905054547 81 97 5.0 8.0 0.00 0.00 0.00 69 1010.3
20260905054024 81 93 6.0 9.0 0.00 0.00 0.00 68 1010.3
20260905053524 81 98 5.0 9.0 0.00 0.00 0.00 68 1010.3
20260905053057 81 101 5.0 10.0 0.00 0.00 0.00 68 1010.4
20260905052524 81 92 5.0 10.0 0.00 0.00 0.00 68 1010.4
20260905052024 81 99 6.0 10.0 0.00 0.00 0.00 68 1010.4
20260905051546 81 99 6.0 9.0 0.00 0.00 0.00 68 1010.4
20260905051024 81 94 6.0 8.0 0.00 0.00 0.00 68 1010.6
20260905050524 81 97 5.0 8.0 0.00 0.00 0.00 67 1010.5
20260905050046 81 94 5.0 8.0 0.00 0.00 0.00 67 1010.7
20260905045523 82 97 4.0 8.0 0.00 0.00 0.00 67 1010.8
20260905045023 82 95 4.0 8.0 0.00 0.00 0.00 66 1010.8
20260905044545 82 98 4.0 8.0 0.00 0.00 0.00 66 1010.8
20260905044024 82 102 4.0 8.0 0.00 0.00 0.00 66 1010.8
20260905043525 82 96 4.0 8.0 0.00 0.00 0.00 66 1010.8
20260905043048 82 95 5.0 10.0 0.00 0.00 0.00 65 1010.7
20260905042525 83 89 5.0 10.0 0.00 0.00 0.00 65 1010.8
20260905042024 83 98 6.0 10.0 0.00 0.00 0.00 65 1010.9
20260905041547 83 97 6.0 10.0 0.00 0.00 0.00 65 1010.8
20260905041025 83 97 6.0 10.0 0.00 0.00 0.00 65 1010.8
20260905040523 83 101 6.0 8.0 0.00 0.00 0.00 65 1010.8
20260905040046 83 84 4.0 7.0 0.00 0.00 0.00 64 1010.8
20260905035523 83 99 4.0 7.0 0.00 0.00 0.00 64 1011.0
20260905035024 83 95 4.0 7.0 0.00 0.00 0.00 63 1010.9
20260905034543 84 96 3.0 7.0 0.00 0.00 0.00 63 1010.9
20260905034024 84 98 4.0 8.0 0.00 0.00 0.00 62 1011.0
20260905033526 84 104 5.0 8.0 0.00 0.00 0.00 62 1011.0
20260905033055 84 99 5.0 8.0 0.00 0.00 0.00 62 1010.9
20260905032524 85 91 4.0 8.0 0.00 0.00 0.00 61 1011.0
20260905032025 85 101 5.0 8.0 0.00 0.00 0.00 61 1011.0
20260905031547 85 99 5.0 9.0 0.00 0.00 0.00 60 1011.0
20260905031024 85 101 6.0 9.0 0.00 0.00 0.00 60 1010.9
20260905030525 86 99 5.0 9.0 0.00 0.00 0.00 60 1010.8
20260905030047 86 93 4.0 8.0 0.00 0.00 0.00 59 1010.7
20260905025526 86 99 5.0 8.0 0.00 0.00 0.00 59 1010.7
20260905025026 86 81 4.0 8.0 0.00 0.00 0.00 59 1010.7
20260905024541 86 81 4.0 9.0 0.00 0.00 0.00 59 1010.6
20260905024026 86 85 5.0 9.0 0.00 0.00 0.00 58 1010.6
20260905023524 87 82 5.0 8.0 0.00 0.00 0.00 58 1010.6
20260905023047 87 91 4.0 8.0 0.00 0.00 0.00 58 1010.4
20260905022524 87 78 5.0 7.0 0.00 0.00 0.00 58 1010.4
20260905022025 87 81 4.0 8.0 0.00 0.00 0.00 58 1010.2
20260905021546 87 86 5.0 8.0 0.00 0.00 0.00 58 1010.2
20260905021024 87 84 4.0 8.0 0.00 0.00 0.00 58 1010.1
20260905020525 87 90 5.0 8.0 0.00 0.00 0.00 57 1009.9
20260905020043 87 84 4.0 7.0 0.00 0.00 0.00 57 1009.7
20260905015524 88 86 3.0 6.0 0.00 0.00 0.00 56 1009.6
20260905015028 88 90 3.0 6.0 0.00 0.00 0.00 56 1009.6
20260905014548 88 87 3.0 6.0 0.00 0.00 0.00 56 1009.4
20260905014024 88 84 3.0 6.0 0.00 0.00 0.00 56 1009.4
20260905013524 89 86 3.0 6.0 0.00 0.00 0.00 55 1009.3
20260905013047 89 90 4.0 6.0 0.00 0.00 0.00 55 1009.4
20260905012524 89 96 4.0 6.0 0.00 0.00 0.00 54 1009.3
20260905012024 89 94 3.0 6.0 0.00 0.00 0.00 55 1009.3
20260905011544 89 93 3.0 6.0 0.00 0.00 0.00 54 1009.2
20260905011024 90 110 4.0 7.0 0.00 0.00 0.00 53 1009.1
20260905010526 91 106 3.0 7.0 0.00 0.00 0.00 52 1009.2
20260905010042 91 105 4.0 8.0 0.00 0.00 0.00 51 1009.2
20260905005525 92 111 4.0 9.0 0.00 0.00 0.00 50 1009.2
20260905005024 92 97 5.0 9.0 0.00 0.00 0.00 49 1009.1
20260905004551 93 360 6.0 10.0 0.00 0.00 0.00 49 1009.0
20260905004023 93 105 6.0 10.0 0.00 0.00 0.00 48 1009.1
20260905003527 94 110 7.0 10.0 0.00 0.00 0.00 47 1009.1
20260905003044 94 95 7.0 11.0 0.00 0.00 0.00 47 1009.1
20260905002524 95 108 6.0 11.0 0.00 0.00 0.00 47 1009.1
20260905002023 95 102 6.0 10.0 0.00 0.00 0.00 46 1009.1
20260905001544 96 101 6.0 11.0 0.00 0.00 0.00 46 1009.0
20260905001024 96 103 7.0 11.0 0.00 0.00 0.00 45 1009.0
20260905000525 96 123 7.0 11.0 0.00 0.00 0.00 45 1009.1
20260905000047 96 115 4.0 14.0 0.00 0.00 0.00 45 1009.1
20260904235526 97 109 7.0 14.0 0.00 0.00 0.00 44 1009.1
20260904235023 97 119 8.0 12.0 0.00 0.00 0.00 43 1009.1
20260904234547 97 110 9.0 15.0 0.00 0.00 0.00 43 1009.1
20260904234026 98 108 9.0 15.0 0.00 0.00 0.00 43 1009.1
20260904233524 98 108 9.0 14.0 0.00 0.00 0.00 43 1009.1
20260904233050 98 136 8.0 13.0 0.00 0.00 0.00 43 1009.1
20260904232526 98 107 9.0 14.0 0.00 0.00 0.00 42 1009.0
20260904232026 98 101 8.0 17.0 0.00 0.00 0.00 42 1008.9
20260904231544 98 90 10.0 17.0 0.00 0.00 0.00 42 1009.0
20260904231023 98 86 6.0 13.0 0.00 0.00 0.00 43 1009.1
20260904230522 99 110 7.0 15.0 0.00 0.00 0.00 42 1009.0
20260904230043 99 109 10.0 16.0 0.00 0.00 0.00 41 1009.1
20260904225525 99 111 10.0 16.0 0.00 0.00 0.00 42 1009.1
20260904225025 99 125 8.0 16.0 0.00 0.00 0.00 41 1009.1
20260904224601 99 136 11.0 16.0 0.00 0.00 0.00 41 1009.1
20260904224024 99 115 8.0 17.0 0.00 0.00 0.00 42 1009.0
20260904223524 99 101 9.0 21.0 0.00 0.00 0.00 41 1009.1
20260904223048 99 97 13.0 21.0 0.00 0.00 0.00 42 1009.1
20260904222523 99 119 7.0 16.0 0.00 0.00 0.00 42 1009.0
20260904222021 100 122 10.0 16.0 0.00 0.00 0.00 41 1009.0
20260904221548 100 145 7.0 19.0 0.00 0.00 0.00 40 1009.1
20260904221023 100 123 12.0 19.0 0.00 0.00 0.00 40 1009.2
20260904220531 100 130 8.0 20.0 0.00 0.00 0.00 41 1009.1
20260904220044 100 123 12.0 20.0 0.00 0.00 0.00 41 1009.1
20260904215524 100 87 9.0 19.0 0.00 0.00 0.00 41 1009.1
20260904215025 100 96 11.0 19.0 0.00 0.00 0.00 41 1009.1
20260904214549 100 113 8.0 19.0 0.00 0.00 0.00 40 1009.2
20260904214024 100 95 11.0 19.0 0.00 0.00 0.00 41 1009.2
20260904213524 100 100 11.0 17.0 0.00 0.00 0.00 42 1009.2
20260904213045 101 103 9.0 16.0 0.00 0.00 0.00 41 1009.2
20260904212524 100 142 9.0 19.0 0.00 0.00 0.00 41 1009.3
20260904212023 100 117 10.0 19.0 0.00 0.00 0.00 41 1009.4
20260904211545 100 105 10.0 19.0 0.00 0.00 0.00 40 1009.5
20260904211025 100 119 10.0 18.0 0.00 0.00 0.00 41 1009.4
20260904210526 100 108 11.0 18.0 0.00 0.00 0.00 42 1009.5
20260904210052 100 100 12.0 17.0 0.00 0.00 0.00 40 1009.6
20260904205525 100 117 7.0 18.0 0.00 0.00 0.00 41 1009.6
20260904205026 100 105 8.0 18.0 0.00 0.00 0.00 41 1009.6
20260904204545 100 99 12.0 18.0 0.00 0.00 0.00 41 1009.7
20260904204025 100 146 7.0 18.0 0.00 0.00 0.00 42 1009.7
20260904203524 99 114 11.0 18.0 0.00 0.00 0.00 42 1009.8
20260904203047 100 101 11.0 17.0 0.00 0.00 0.00 41 1009.9
20260904202525 100 96 10.0 17.0 0.00 0.00 0.00 42 1009.8
20260904202025 100 94 9.0 20.0 0.00 0.00 0.00 42 1009.7
20260904201558 100 95 13.0 20.0 0.00 0.00 0.00 42 1009.7
20260904201024 100 101 12.0 18.0 0.00 0.00 0.00 43 1009.7
20260904200524 100 94 12.0 19.0 0.00 0.00 0.00 42 1009.7
20260904200044 100 109 11.0 20.0 0.00 0.00 0.00 43 1009.9
20260904195526 99 94 8.0 20.0 0.00 0.00 0.00 44 1009.9
20260904195023 100 96 10.0 15.0 0.00 0.00 0.00 43 1010.0
20260904194559 100 92 10.0 19.0 0.00 0.00 0.00 43 1010.0
20260904194025 99 124 11.0 20.0 0.00 0.00 0.00 44 1010.0
20260904193525 99 126 12.0 20.0 0.00 0.00 0.00 45 1009.9
20260904193041 98 101 14.0 20.0 0.00 0.00 0.00 45 1010.0
20260904192523 98 84 13.0 20.0 0.00 0.00 0.00 44 1010.1
20260904192028 98 87 10.0 28.0 0.00 0.00 0.00 45 1010.0
20260904191544 99 95 12.0 28.0 0.00 0.00 0.00 44 1010.1
20260904191021 100 94 14.0 19.0 0.00 0.00 0.00 43 1010.0
20260904190524 99 116 12.0 19.0 0.00 0.00 0.00 45 1010.1
20260904190045 98 115 9.0 19.0 0.00 0.00 0.00 45 1010.3
20260904185524 97 104 11.0 18.0 0.00 0.00 0.00 47 1010.4
20260904185023 98 86 11.0 21.0 0.00 0.00 0.00 46 1010.3
20260904184542 99 137 12.0 21.0 0.00 0.00 0.00 45 1010.5
20260904184022 98 99 11.0 21.0 0.00 0.00 0.00 46 1010.5
20260904183521 98 126 8.0 20.0 0.00 0.00 0.00 46 1010.6
20260904183046 99 111 7.0 22.0 0.00 0.00 0.00 46 1010.7
20260904182524 98 126 9.0 22.0 0.00 0.00 0.00 46 1010.8
20260904182028 98 123 12.0 22.0 0.00 0.00 0.00 46 1010.8
20260904181545 97 100 9.0 20.0 0.00 0.00 0.00 47 1010.8
20260904181024 97 131 12.0 20.0 0.00 0.00 0.00 47 1010.9
20260904180523 98 125 8.0 16.0 0.00 0.00 0.00 46 1010.9
20260904180044 98 127 10.0 20.0 0.00 0.00 0.00 47 1011.0
20260904175524 97 110 9.0 20.0 0.00 0.00 0.00 48 1011.0
20260904175024 96 111 10.0 18.0 0.00 0.00 0.00 48 1011.0
20260904174550 96 146 11.0 18.0 0.00 0.00 0.00 48 1011.2
20260904174025 96 100 10.0 17.0 0.00 0.00 0.00 48 1011.1
20260904173523 96 118 8.0 13.0 0.00 0.00 0.00 49 1011.1
20260904173103 95 111 8.0 19.0 0.00 0.00 0.00 49 1011.3
20260904172524 96 117 11.0 19.0 0.00 0.00 0.00 49 1011.3
20260904172024 95 150 8.0 15.0 0.00 0.00 0.00 50 1011.3
20260904171552 95 141 6.0 15.0 0.00 0.00 0.00 51 1011.4
20260904171026 95 110 9.0 18.0 0.00 0.00 0.00 50 1011.4
20260904170525 94 102 10.0 18.0 0.00 0.00 0.00 50 1011.5
20260904170047 94 120 9.0 17.0 0.00 0.00 0.00 51 1011.5
20260904165525 94 81 8.0 18.0 0.00 0.00 0.00 52 1011.7
20260904165024 93 131 7.0 20.0 0.00 0.00 0.00 51 1011.7
20260904164553 94 113 12.0 20.0 0.00 0.00 0.00 52 1011.7
20260904164025 93 107 11.0 19.0 0.00 0.00 0.00 52 1011.6
20260904163524 93 105 9.0 16.0 0.00 0.00 0.00 53 1011.7
20260904163043 92 101 8.0 16.0 0.00 0.00 0.00 53 1011.6
20260904162524 93 132 12.0 16.0 0.00 0.00 0.00 53 1011.6
20260904162025 92 135 9.0 16.0 0.00 0.00 0.00 54 1011.5
20260904161542 92 126 7.0 16.0 0.00 0.00 0.00 55 1011.5
20260904161025 92 113 10.0 16.0 0.00 0.00 0.00 54 1011.7
20260904160523 91 128 7.0 14.0 0.00 0.00 0.00 55 1011.5
20260904160046 91 140 6.0 14.0 0.00 0.00 0.00 56 1011.5
20260904155525 90 138 6.0 14.0 0.00 0.00 0.00 56 1011.6
20260904155024 90 149 9.0 15.0 0.00 0.00 0.00 56 1011.5
20260904154544 90 114 8.0 15.0 0.00 0.00 0.00 57 1011.6
20260904154028 90 113 8.0 15.0 0.00 0.00 0.00 57 1011.6
20260904153524 89 138 9.0 15.0 0.00 0.00 0.00 57 1011.8
20260904153043 89 110 8.0 15.0 0.00 0.00 0.00 58 1011.7
20260904152524 89 123 10.0 16.0 0.00 0.00 0.00 58 1011.8
20260904152024 88 146 9.0 17.0 0.00 0.00 0.00 59 1011.8
20260904151548 88 146 11.0 17.0 0.00 0.00 0.00 59 1011.9
20260904151028 88 146 8.0 18.0 0.00 0.00 0.00 59 1011.9
20260904150524 88 140 10.0 18.0 0.00 0.00 0.00 60 1011.8
20260904150104 87 139 10.0 18.0 0.00 0.00 0.00 60 1011.9
20260904145524 87 119 11.0 18.0 0.00 0.00 0.00 61 1011.9
20260904145027 86 113 11.0 19.0 0.00 0.00 0.00 62 1011.8
20260904144545 86 120 12.0 19.0 0.00 0.00 0.00 62 1011.8
20260904144024 86 111 11.0 19.0 0.00 0.00 0.00 62 1011.7
20260904143525 85 96 9.0 14.0 0.00 0.00 0.00 64 1011.7
20260904143044 85 125 9.0 15.0 0.00 0.00 0.00 65 1011.8
20260904142523 84 100 10.0 19.0 0.00 0.00 0.00 65 1011.8
20260904142023 84 115 9.0 19.0 0.00 0.00 0.00 66 1011.9
20260904141548 83 114 12.0 18.0 0.00 0.00 0.00 68 1011.9
20260904141024 82 109 10.0 16.0 0.00 0.00 0.00 69 1011.9
20260904140524 82 108 7.0 15.0 0.00 0.00 0.00 70 1011.8
20260904140046 81 112 9.0 15.0 0.00 0.00 0.00 72 1011.8
20260904135524 81 113 8.0 13.0 0.00 0.00 0.00 73 1011.7
20260904135024 80 119 8.0 13.0 0.00 0.00 0.00 74 1011.7
20260904134553 79 100 8.0 13.0 0.00 0.00 0.00 75 1011.7
20260904134024 79 120 7.0 12.0 0.00 0.00 0.00 77 1011.6
20260904133525 78 105 8.0 12.0 0.00 0.00 0.00 78 1011.5
20260904133050 77 111 8.0 13.0 0.00 0.00 0.00 79 1011.4
20260904132526 77 110 9.0 13.0 0.00 0.00 0.00 80 1011.4
20260904132024 76 105 8.0 13.0 0.00 0.00 0.00 81 1011.5
20260904131546 76 103 8.0 13.0 0.00 0.00 0.00 83 1011.4
20260904131024 75 104 8.0 12.0 0.00 0.00 0.00 84 1011.3
20260904130528 75 105 8.0 12.0 0.00 0.00 0.00 84 1011.3
20260904130045 74 91 7.0 11.0 0.00 0.00 0.00 86 1011.3
20260904125524 74 115 8.0 11.0 0.00 0.00 0.00 86 1011.3
20260904125025 73 109 7.0 10.0 0.00 0.00 0.00 86 1011.3
20260904124544 73 107 6.0 10.0 0.00 0.00 0.00 87 1011.1
20260904124027 73 104 6.0 10.0 0.00 0.00 0.00 87 1011.2
20260904123525 72 91 7.0 10.0 0.00 0.00 0.00 88 1011.0
20260904123046 72 92 6.0 10.0 0.00 0.00 0.00 88 1011.0
20260904122525 72 101 6.0 10.0 0.00 0.00 0.00 88 1011.0
20260904122025 72 94 7.0 9.0 0.00 0.00 0.00 87 1010.9
20260904121544 72 94 5.0 9.0 0.00 0.00 0.00 87 1010.8
20260904121024 72 96 5.0 9.0 0.00 0.00 0.00 87 1010.7
20260904120525 72 96 5.0 9.0 0.00 0.00 0.00 87 1010.8
20260904120044 72 100 4.0 7.0 0.00 0.00 0.00 87 1010.6
20260904115527 72 102 4.0 8.0 0.00 0.00 0.00 87 1010.7
20260904115023 72 103 4.0 8.0 0.00 0.00 0.00 86 1010.5
20260904114546 72 98 4.0 6.0 0.00 0.00 0.00 86 1010.5
20260904114024 72 97 3.0 6.0 0.00 0.00 0.00 86 1010.6
20260904113525 72 105 2.0 6.0 0.00 0.00 0.00 86 1010.7
20260904113049 72 96 3.0 6.0 0.00 0.00 0.00 86 1010.7
20260904112524 72 96 3.0 6.0 0.00 0.00 0.00 86 1010.6
20260904112025 72 93 3.0 6.0 0.00 0.00 0.00 85 1010.7
20260904111546 73 101 3.0 6.0 0.00 0.00 0.00 85 1010.8
20260904111024 73 96 3.0 7.0 0.00 0.00 0.00 85 1010.7
20260904110524 73 101 3.0 7.0 0.00 0.00 0.00 84 1010.6
20260904110043 73 109 4.0 6.0 0.00 0.00 0.00 84 1010.5
20260904105527 73 103 3.0 6.0 0.00 0.00 0.00 84 1010.4
20260904105024 73 98 3.0 6.0 0.00 0.00 0.00 83 1010.6
20260904104543 73 112 3.0 6.0 0.00 0.00 0.00 83 1010.6
20260904104025 73 113 3.0 6.0 0.00 0.00 0.00 83 1010.7
20260904103525 73 106 3.0 6.0 0.00 0.00 0.00 83 1010.5
20260904103046 73 107 3.0 7.0 0.00 0.00 0.00 83 1010.6
20260904102526 74 113 3.0 7.0 0.00 0.00 0.00 82 1010.6
20260904102023 74 111 4.0 8.0 0.00 0.00 0.00 82 1010.6
20260904101546 74 112 5.0 8.0 0.00 0.00 0.00 82 1010.4
20260904101023 74 109 5.0 8.0 0.00 0.00 0.00 81 1010.4
20260904100523 74 98 4.0 8.0 0.00 0.00 0.00 81 1010.4
20260904100042 74 104 5.0 8.0 0.00 0.00 0.00 81 1010.5
20260904095526 74 113 4.0 8.0 0.00 0.00 0.00 81 1010.4
20260904095021 74 105 5.0 8.0 0.00 0.00 0.00 81 1010.5
20260904094545 75 107 5.0 8.0 0.00 0.00 0.00 80 1010.3
20260904094025 75 106 4.0 7.0 0.00 0.00 0.00 80 1010.4
20260904093524 75 102 3.0 7.0 0.00 0.00 0.00 79 1010.3
20260904093046 75 104 4.0 8.0 0.00 0.00 0.00 79 1010.4
20260904092523 75 108 4.0 8.0 0.00 0.00 0.00 79 1010.4
20260904092024 75 111 4.0 8.0 0.00 0.00 0.00 79 1010.3
20260904091544 75 93 5.0 8.0 0.00 0.00 0.00 78 1010.2
20260904091025 76 105 4.0 7.0 0.00 0.00 0.00 77 1010.2
20260904090525 76 118 3.0 6.0 0.00 0.00 0.00 77 1010.2
20260904090043 76 107 4.0 6.0 0.00 0.00 0.00 76 1010.1
20260904085525 76 121 4.0 7.0 0.00 0.00 0.00 76 1010.1
20260904085022 77 111 4.0 7.0 0.00 0.00 0.00 75 1010.1
20260904084542 77 116 4.0 6.0 0.00 0.00 0.00 75 1010.0
20260904084024 77 119 3.0 7.0 0.00 0.00 0.00 75 1010.1
20260904083524 77 127 3.0 8.0 0.00 0.00 0.00 74 1010.2
20260904083047 77 123 3.0 8.0 0.00 0.00 0.00 74 1010.2
20260904082526 78 123 4.0 8.0 0.00 0.00 0.00 74 1010.1
20260904082027 78 115 4.0 8.0 0.00 0.00 0.00 73 1010.1
20260904081543 78 123 4.0 8.0 0.00 0.00 0.00 73 1010.2
20260904081023 78 101 4.0 9.0 0.00 0.00 0.00 72 1010.1
20260904080524 79 131 4.0 9.0 0.00 0.00 0.00 72 1010.0
20260904080049 79 121 4.0 8.0 0.00 0.00 0.00 72 1010.1
20260904075520 79 114 5.0 9.0 0.00 0.00 0.00 71 1010.2
20260904075024 79 109 5.0 9.0 0.00 0.00 0.00 71 1010.2
20260904074546 79 131 4.0 9.0 0.00 0.00 0.00 71 1010.2
20260904074025 80 150 5.0 9.0 0.00 0.00 0.00 70 1010.3
20260904073522 80 143 4.0 12.0 0.00 0.00 0.00 70 1010.3
20260904073048 80 153 6.0 13.0 0.00 0.00 0.00 70 1010.4
20260904072523 80 119 6.0 13.0 0.00 0.00 0.00 70 1010.4
20260904072027 80 151 6.0 14.0 0.00 0.00 0.00 70 1010.3
20260904071544 80 130 9.0 15.0 0.00 0.00 0.00 69 1010.3
20260904071025 80 135 9.0 15.0 0.00 0.00 0.00 69 1010.2
20260904070525 80 130 8.0 14.0 0.00 0.00 0.00 69 1010.2
20260904070052 80 121 9.0 14.0 0.00 0.00 0.00 69 1010.1
20260904065525 80 132 9.0 14.0 0.00 0.00 0.00 69 1010.1
20260904065024 80 134 9.0 15.0 0.00 0.00 0.00 69 1010.2
20260904064546 80 110 8.0 15.0 0.00 0.00 0.00 69 1010.2
20260904064024 80 119 8.0 15.0 0.00 0.00 0.00 69 1010.2
20260904063523 80 115 8.0 15.0 0.00 0.00 0.00 70 1010.2
20260904063043 80 129 8.0 15.0 0.00 0.00 0.00 70 1010.1